Regional Weather Roundup
Issued by NWS

Home | Current Version | Previous Version | Graphics & Text | Print | Product List | Glossary Off
Versions: 1 2 3 4 5 6 7 8 9 10 11 12 13 14 15 16 17 18 19 20 21 22 23 24 25 26 27 28 29 30 31 32 33 34 35 36 37 38 39 40 41 42 43 44 45 46 47 48 49 50

000
ASUS43 KDMX 260501
RWRIA

WEATHER ROUNDUP FOR IOWA
NATIONAL WEATHER SERVICE DES MOINES IA
1200 AM CDT THU APR 26 2018

NOTE: "FAIR" INDICATES FEW OR NO CLOUDS BELOW 12,000 FEET WITH NO
SIGNIFICANT WEATHER AND/OR OBSTRUCTIONS TO VISIBILITY.

* - THESE STATIONS ARE NOT NWS STATIONS...THUS NOT UNDER NWS
QUALITY CONTROL.  THEY ALSO DO NOT REPORT WEATHER SUCH
AS PRECIPITATION OR FOG.

IAZ001>003-012>014-020>022-031>034-043>046-260600-
   NORTHWEST IOWA

CITY           SKY/WX    TMP DP  RH WIND       PRES   REMARKS
CARROLL *      CLOUDY    39  30  70 CALM      29.98F
CHEROKEE *     CLOUDY    41  33  73 CALM      29.98F
DENISON *      CLOUDY    41  30  65 CALM      30.00F
LE MARS *      CLOUDY    43  34  70 CALM      29.97F
ORANGE CITY *  CLOUDY    48  30  49 CALM      29.97F
SHELDON *      PTCLDY    41  30  65 CALM      29.95F
SIOUX CITY     CLOUDY    43  35  73 SW6       29.98F
SPENCER        PTCLDY    42  33  70 S6        29.97F
STORM LAKE *   CLOUDY    46  28  49 S7        29.98F
$$

IAZ055>058-069>071-079>083-090>094-260600-
   SOUTHWEST IOWA

CITY           SKY/WX    TMP DP  RH WIND       PRES   REMARKS
ATLANTIC *     CLEAR     39  34  81 SW5       29.99F
AUDUBON *      CLEAR     34  28  80 CALM      30.00F
CLARINDA *     PTCLDY    41  37  87 VRB3      30.03F
COUNCIL BLFS * CLOUDY    46  37  71 SW6       29.99F
CRESTON *      CLEAR     39  36  87 W7        30.01F WCI  34
HARLAN  *      CLOUDY    37  28  70 CALM      30.02F
LAMONI         CLEAR     43  38  82 W8        30.00F
RED OAK *      CLEAR     41  37  87 S5        30.00F
SHENANDOAH *   CLEAR     41  37  87 SW6       30.01F
$$

IAZ047>049-059>061-072>074-084-260600-
   CENTRAL IOWA

CITY           SKY/WX    TMP DP  RH WIND       PRES   REMARKS
AMES           CLEAR     47  34  60 CALM      29.99F
ANKENY *       CLEAR     45  32  61 N5        29.99F
BOONE *        CLOUDY    45  34  65 NE7       29.98F
CHARITON *     PTCLDY    48  28  46 W8        29.99S
DES MOINES     PTCLDY    52  31  44 CALM      29.99F
GRINNELL*      CLEAR     46  29  51 N3        30.00S
KNOXVILLE *    CLEAR     46  28  49 W6        29.97F
MARSHALLTOWN   CLEAR     43  33  68 N8        29.98F
NEWTON *       CLEAR     46  30  53 N7        29.99S
PELLA *        CLEAR     46  30  52 W3        30.00R
$$

IAZ004>006-015-016-023>025-035-036-260600-
   NORTH CENTRAL IOWA

CITY           SKY/WX    TMP DP  RH WIND       PRES   REMARKS
ALGONA *       CLOUDY    46  36  66 SE6       29.98F
CLARION *      CLOUDY    45  36  70 E6        29.98F
ESTHERVILLE    CLOUDY    42  37  82 S6        29.96F
FORT DODGE *   CLOUDY    44  34  67 E5        29.99F
MASON CITY     CLOUDY    39  34  82 W3        29.99F
FOREST CITY *  FAIR      39  37  93 CALM      29.98F
WEBSTER CITY * PTCLDY    43  34  70 E3        29.97F
IOWA FALLS *   FAIR      41  35  79 CALM      30.00F
$$

IAZ007>011-017>019-026>030-037>042-050>054-066-260600-
   NORTHEAST IOWA

CITY           SKY/WX    TMP DP  RH WIND       PRES   REMARKS
CEDAR RAPIDS   FAIR      46  28  49 NE3       29.96F
CHARLES CITY * FAIR      45  36  70 NW5       29.99F
CLINTON *      FAIR      45  34  65 SE12      29.99S
DECORAH *      MOCLDY    45  30  57 CALM      29.97F
DUBUQUE        FAIR      43  29  57 NE3       29.97F
MONTICELLO *   FAIR      37  30  75 CALM      29.97F
OELWEIN *      FAIR      46  34  61 N6        29.99F
WATERLOO       FAIR      38  32  79 CALM      29.98F
$$

IAZ064-065-067-068-078-260600-
   EAST CENTRAL IOWA

CITY           SKY/WX    TMP DP  RH WIND       PRES   REMARKS
DAVENPORT      FAIR      47  28  47 NE5       29.99F
IOWA CITY      FAIR      46  31  55 CALM      29.98F
MUSCATINE *    FAIR      45  32  61 CALM      29.97F
QUAD CITIES    FAIR      42  33  70 CALM      29.97F
$$

IAZ062-063-075>077-085>089-095>099-260600-
   SOUTHEAST IOWA

CITY           SKY/WX    TMP DP  RH WIND       PRES   REMARKS
BURLINGTON     CLEAR     46  34  62 SW5       29.97F
FAIRFIELD *    PTCLDY    45  28  53 W3        29.97S
FORT MADISON * CLEAR     52  37  58 SW3       29.98S
KEOKUK *       CLEAR     45  37  76 SW3       29.97F
OSKALOOSA *    FAIR      45  25  45 W5        29.98F
CENTERVILLE *  FAIR      41  32  70 CALM      30.00S
OTTUMWA        CLEAR     46  29  51 W6        29.97F
WASHINGTON *   CLEAR     46  28  49 N6        29.98F
$$

ABBREVIATIONS USED IN REMARKS
   TC - TEMPERATURES IN CELSIUS
  WCI - WIND CHILL INDEX
   HX - HEAT INDEX
  VSB - VISIBILITY
$$





USA.gov is the U.S. government's official web portal to all federal, state and local government web resources and services.